Regional Weather Roundup
Issued by NWS Sioux Falls, SD

Home | Current Version | Previous Version | Text Only | Print | Product List | Glossary On
Versions: 1 2 3 4 5 6 7 8 9 10 11 12 13 14 15 16 17 18 19 20 21 22 23 24 25 26 27 28 29 30 31 32 33 34 35 36 37 38 39 40 41 42 43 44 45 46 47 48 49 50
000
ASUS43 KFSD 191110
RWRFSD

WEATHER ROUNDUP FOR SE SOUTH DAKOTA/SW MINNESOTA/NW IOWA
NATIONAL WEATHER SERVICE SIOUX FALLS SD
600 AM CDT SUN APR 19 2015

NOTE: "FAIR" INDICATES FEW OR NO CLOUDS BELOW 12,000 FEET WITH NO
SIGNIFICANT WEATHER AND OR OBSTRUCTIONS TO VISIBILITY.


SDZ038>040-050-052>070-191200-
SOUTHEAST SOUTH DAKOTA

CITY           SKY/WX    TMP DP  RH WIND       PRES   REMARKS
BROOKINGS      CLOUDY    54  50  87 W12       29.71S
CHAMBERLAIN    CLOUDY    46  42  85 N17G26    29.85S
HURON          CLOUDY    48  47  96 NW23G30   29.78R
MADISON        CLOUDY    48  48 100 NW17      29.73R
MITCHELL       CLOUDY    50  47  89 NW23      29.79R
SIOUX FALLS    CLOUDY    54  51  90 W12       29.72S
WINNER         CLOUDY    47  43  86 NW22G30   29.89R
YANKTON        CLOUDY    50  46  87 NW21      29.76S
$$

MNZ071-072-080-081-089-090-097-098-191200-
SOUTHWEST MINNESOTA

CITY           SKY/WX    TMP DP  RH WIND       PRES   REMARKS
FAIRMONT       CLOUDY    54  45  71 S8        29.72S
JACKSON        FOG       54  52  94 S5        29.72F VSB 1
LUVERNE        CLOUDY    55  54  94 SW7       29.72S FOG
MARSHALL       CLOUDY    55  52  88 SW12      29.67F
MONTEVIDEO     CLOUDY    55  55 100 SW6       29.67F FOG
PIPESTONE      LGT RAIN  55  54  94 W9        29.71R
REDWOOD FALLS  CLOUDY    55  54  96 S9        29.68F FOG
TRACY          CLOUDY    56  55  94 SW9       29.69S FOG
WORTHINGTON    CLOUDY    54  52  94 SW13      29.71F
$$

IAZ001>003-012>014-020>022-031-032-NEZ013-014-SDZ071-191200-
NORTHWEST IOWA

CITY           SKY/WX    TMP DP  RH WIND       PRES   REMARKS
CHEROKEE       CLOUDY    54  54 100 SW5       29.72S FOG
DENISON        FOG       55  55 100 CALM      29.71F VSB<1/4
ESTHERVILLE    CLOUDY    52  52 100 S8        29.72S FOG
LE MARS        CLOUDY    55  55 100 CALM      29.73S FOG
ORANGE CITY    CLOUDY   N/A N/A N/A W5        29.72F FOG
SHELDON        CLOUDY    54  54 100 SW8       29.71F FOG
SIOUX CITY     FOG       55  53  93 CALM      29.73S VSB 1/2
SPENCER        CLOUDY    53  52  96 S6        29.72F
STORM LAKE     FOG       54  54 100 S9        29.73F VSB 1/4
$$

ABBREVIATIONS USED IN REMARKS
   TC - TEMPERATURE IN CELSIUS
  WCI - WIND CHILL INDEX
   HX - HEAT INDEX
  VSB - VISIBILITY



USA.gov is the U.S. government's official web portal to all federal, state and local government web resources and services.